,,,PA_Meas_PMT16A,,PR_Meas_QMR101_102,,RH_Meas_QMH101,,SR_Meas_QMS101,,TA_Meas_QMH101,,GenWind,,GenWind,
date,time,status,PA,status,PR,status,RH,status,SR,status,TA,status,DirAvg,status,SpdAvg,
2011-04-16, 00:00:05,VALID,1004.47,VALID,0,INVALID,163.678,VALID,0,VALID,24.5582,VALID,2,VALID,0.102344,
2011-04-16, 00:01:05,VALID,1004.47,VALID,0,INVALID,163.662,VALID,0.100563,VALID,24.5777,VALID,2,VALID,0.260938,
2011-04-16, 00:02:05,VALID,1004.48,VALID,0,INVALID,163.67,VALID,0.100563,VALID,24.5582,VALID,2,VALID,0.272656,
2011-04-16, 00:03:05,VALID,1004.47,VALID,0,INVALID,163.678,VALID,0,VALID,24.5777,VALID,2,VALID,0.171875,
2011-04-16, 00:04:05,VALID,1004.48,VALID,0,INVALID,163.708,VALID,0.100563,VALID,24.5972,VALID,2,VALID,0.295703,
2011-04-16, 00:05:05,VALID,1004.49,VALID,0,INVALID,163.655,VALID,0,VALID,24.5777,VALID,2,VALID,0.236719,
2011-04-16, 00:06:05,VALID,1004.49,VALID,0,INVALID,163.693,VALID,0,VALID,24.5972,VALID,2,VALID,0.204688,
2011-04-16, 00:07:05,VALID,1004.48,VALID,0,INVALID,163.662,VALID,0,VALID,24.6185,VALID,2,VALID,0.245703,
2011-04-16, 00:08:05,VALID,1004.48,VALID,0,INVALID,163.67,VALID,0,VALID,24.5972,VALID,2,VALID,0.45625,
2011-04-16, 00:09:05,VALID,1004.48,VALID,0,INVALID,163.693,VALID,0,VALID,24.5972,VALID,2,VALID,0.3375,
2011-04-16, 00:10:05,VALID,1004.5,VALID,0,INVALID,163.678,VALID,0,VALID,24.5972,VALID,2,VALID,0.558984,
2011-04-16, 00:11:05,VALID,1004.49,VALID,0,INVALID,163.655,VALID,0,VALID,24.5972,VALID,2,VALID,0.334766,
2011-04-16, 00:12:05,VALID,1004.48,VALID,0,INVALID,163.678,VALID,0,VALID,24.5972,VALID,2,VALID,0.635547,
2011-04-16, 00:13:05,VALID,1004.49,VALID,0,INVALID,163.67,VALID,0,VALID,24.5777,VALID,2,VALID,0.578516,
2011-04-16, 00:14:05,VALID,1004.49,VALID,0,INVALID,163.678,VALID,0,VALID,24.5582,VALID,2,VALID,0.564844,
2011-04-16, 00:15:05,VALID,1004.44,VALID,0,INVALID,163.655,VALID,0,VALID,24.5582,VALID,2,VALID,0.510938,
2011-04-16, 00:16:05,VALID,1004.44,VALID,0,INVALID,163.655,VALID,0.100563,VALID,24.5564,VALID,3,VALID,0.590234,
2011-04-16, 00:17:05,VALID,1004.36,VALID,0,INVALID,163.67,VALID,0,VALID,24.5972,VALID,7,VALID,0.428906,
2011-04-16, 00:18:05,VALID,1004.32,VALID,0,INVALID,163.662,VALID,0,VALID,24.5758,VALID,7,VALID,0.416016,
2011-04-16, 00:19:05,VALID,1004.28,VALID,0,INVALID,163.678,VALID,0.100563,VALID,24.5972,VALID,7,VALID,0.460938,
2011-04-16, 00:20:05,VALID,1004.23,VALID,0,INVALID,163.693,VALID,0.100563,VALID,24.5972,VALID,7,VALID,0.252344,
2011-04-16, 00:21:05,VALID,1004.16,VALID,0,INVALID,163.662,VALID,0.100563,VALID,24.5972,VALID,7,VALID,0.542969,
2011-04-16, 00:22:05,VALID,1004.14,VALID,0,INVALID,163.662,VALID,0.100563,VALID,24.5972,VALID,7,VALID,0.54375,
2011-04-16, 00:23:05,VALID,1004.12,VALID,0,INVALID,163.678,VALID,0,VALID,24.5564,VALID,7,VALID,0.458984,
2011-04-16, 00:24:05,VALID,1004.08,VALID,0,INVALID,163.678,VALID,0,VALID,24.5777,VALID,7,VALID,0.483203,
2011-04-16, 00:25:05,VALID,1004.06,VALID,0,INVALID,163.685,VALID,0,VALID,24.5777,VALID,354,VALID,0.618359,
2011-04-16, 00:26:05,VALID,1003.99,VALID,0,INVALID,163.693,VALID,0,VALID,24.5582,VALID,353,VALID,0.578906,
2011-04-16, 00:27:05,VALID,1003.99,VALID,0,INVALID,163.678,VALID,0,VALID,24.5796,VALID,354,VALID,0.538672,
2011-04-16, 00:28:05,VALID,1003.98,VALID,0,INVALID,163.647,VALID,0,VALID,24.5582,VALID,354,VALID,0.4625,
2011-04-16, 00:29:05,VALID,1003.93,VALID,0,INVALID,163.655,VALID,0,VALID,24.5582,VALID,354,VALID,0.336328,
2011-04-16, 00:30:05,VALID,1003.93,VALID,0,INVALID,163.678,VALID,0,VALID,24.5582,VALID,354,VALID,0.441797,
2011-04-16, 00:31:05,VALID,1003.92,VALID,0,INVALID,163.693,VALID,0,VALID,24.5777,VALID,354,VALID,0.348828,
2011-04-16, 00:32:05,VALID,1003.88,VALID,0,INVALID,163.655,VALID,0,VALID,24.5972,VALID,354,VALID,0.225781,
2011-04-16, 00:33:05,VALID,1003.88,VALID,0,INVALID,163.678,VALID,0,VALID,24.5972,VALID,354,VALID,0.323438,
2011-04-16, 00:34:05,VALID,1003.89,VALID,0,INVALID,163.647,VALID,0,VALID,24.6361,VALID,354,VALID,0.286719,
2011-04-16, 00:35:05,VALID,1003.87,VALID,0,INVALID,163.685,VALID,0,VALID,24.6361,VALID,354,VALID,0.310937,
2011-04-16, 00:36:05,VALID,1003.83,VALID,0,INVALID,163.685,VALID,0,VALID,24.6166,VALID,354,VALID,0.342578,
2011-04-16, 00:37:05,VALID,1003.8,VALID,0,INVALID,163.662,VALID,0,VALID,24.6361,VALID,354,VALID,0.271484,
2011-04-16, 00:38:05,VALID,1003.81,VALID,0,INVALID,163.693,VALID,0,VALID,24.6769,VALID,354,VALID,0.270312,
2011-04-16, 00:39:05,VALID,1003.81,VALID,0,INVALID,163.685,VALID,0,VALID,24.6556,VALID,354,VALID,0.382422,
2011-04-16, 00:40:05,VALID,1003.76,VALID,0,INVALID,163.678,VALID,0,VALID,24.6342,VALID,354,VALID,0.293359,
2011-04-16, 00:41:05,VALID,1003.75,VALID,0,INVALID,163.655,VALID,0.100563,VALID,24.6556,VALID,354,VALID,0.351563,
2011-04-16, 00:42:05,VALID,1003.74,VALID,0,INVALID,163.67,VALID,0.100563,VALID,24.675,VALID,354,VALID,0.347656,
2011-04-16, 00:43:05,VALID,1003.73,VALID,0,INVALID,163.662,VALID,0,VALID,24.675,VALID,354,VALID,0.463281,
2011-04-16, 00:44:05,VALID,1003.7,VALID,0,INVALID,163.67,VALID,0,VALID,24.6769,VALID,354,VALID,0.54375,
2011-04-16, 00:45:05,VALID,1003.69,VALID,0,INVALID,163.655,VALID,0,VALID,24.6361,VALID,354,VALID,0.620313,
2011-04-16, 00:46:05,VALID,1003.74,VALID,0,INVALID,163.67,VALID,0,VALID,24.6556,VALID,354,VALID,0.730078,
2011-04-16, 00:47:05,VALID,1003.72,VALID,0,INVALID,163.655,VALID,0,VALID,24.6574,VALID,360,VALID,0.559766,
2011-04-16, 00:48:05,VALID,1003.76,VALID,0,INVALID,163.678,VALID,0.100563,VALID,24.638,VALID,360,VALID,0.517969,
2011-04-16, 00:49:05,VALID,1003.74,VALID,0,INVALID,163.67,VALID,0,VALID,24.6166,VALID,360,VALID,0.685156,
2011-04-16, 00:50:05,VALID,1003.77,VALID,0,INVALID,163.685,VALID,0,VALID,24.6361,VALID,360,VALID,0.706641,
2011-04-16, 00:51:05,VALID,1003.74,VALID,0,INVALID,163.685,VALID,0,VALID,24.6166,VALID,360,VALID,0.515625,
2011-04-16, 00:52:05,VALID,1003.74,VALID,0,INVALID,163.655,VALID,0,VALID,24.6574,VALID,360,VALID,0.591406,
2011-04-16, 00:53:05,VALID,1003.74,VALID,0,INVALID,163.67,VALID,0,VALID,24.6361,VALID,359,VALID,0.608984,
2011-04-16, 00:54:05,VALID,1003.73,VALID,0,INVALID,163.655,VALID,0,VALID,24.6166,VALID,359,VALID,0.628516,
2011-04-16, 00:55:05,VALID,1003.69,VALID,0,INVALID,163.655,VALID,0,VALID,24.6361,VALID,358,VALID,0.59375,
2011-04-16, 00:56:05,VALID,1003.66,VALID,0,INVALID,163.685,VALID,0,VALID,24.6556,VALID,357,VALID,0.617578,
2011-04-16, 00:57:05,VALID,1003.65,VALID,0,INVALID,163.67,VALID,0,VALID,24.6148,VALID,357,VALID,0.594922,
2011-04-16, 00:58:05,VALID,1003.59,VALID,0,INVALID,163.67,VALID,0,VALID,24.6556,VALID,357,VALID,0.488672,
2011-04-16, 00:59:05,VALID,1003.57,VALID,0,INVALID,163.685,VALID,0,VALID,24.6556,VALID,357,VALID,0.457812,
2011-04-16, 01:00:05,VALID,1003.52,VALID,0,INVALID,163.685,VALID,0,VALID,24.6556,VALID,357,VALID,0.3875,
2011-04-16, 01:01:05,VALID,1003.49,VALID,0,INVALID,163.678,VALID,0.100563,VALID,24.6537,VALID,357,VALID,0.404297,
2011-04-16, 01:02:05,VALID,1003.47,VALID,0,INVALID,163.693,VALID,0,VALID,24.6556,VALID,357,VALID,0.401563,
2011-04-16, 01:03:05,VALID,1003.45,VALID,0,INVALID,163.67,VALID,0,VALID,24.6945,VALID,357,VALID,0.546875,
2011-04-16, 01:04:05,VALID,1003.48,VALID,0,INVALID,163.655,VALID,0,VALID,24.714,VALID,346,VALID,0.408594,
2011-04-16, 01:05:05,VALID,1003.46,VALID,0,INVALID,163.67,VALID,0,VALID,24.7353,VALID,346,VALID,0.488672,
2011-04-16, 01:06:05,VALID,1003.46,VALID,0,INVALID,163.67,VALID,0,VALID,24.7548,VALID,346,VALID,0.671484,
2011-04-16, 01:07:05,VALID,1003.49,VALID,0,INVALID,163.678,VALID,0,VALID,24.7529,VALID,347,VALID,0.733203,
2011-04-16, 01:08:05,VALID,1003.47,VALID,0,INVALID,163.67,VALID,0,VALID,24.7937,VALID,2,VALID,0.738281,
2011-04-16, 01:09:05,VALID,1003.46,VALID,0,INVALID,163.639,VALID,0,VALID,24.7705,VALID,1,VALID,0.382422,
2011-04-16, 01:10:05,VALID,1003.44,VALID,0,INVALID,163.647,VALID,0,VALID,24.8113,VALID,358,VALID,0.553516,
2011-04-16, 01:11:05,VALID,1003.43,VALID,0,INVALID,163.639,VALID,0,VALID,24.8503,VALID,346,VALID,1.00859,
2011-04-16, 01:12:05,VALID,1003.36,VALID,0,INVALID,163.624,VALID,0,VALID,24.9476,VALID,342,VALID,0.359375,
2011-04-16, 01:13:05,VALID,1003.34,VALID,0,INVALID,163.624,VALID,0,VALID,25.006,VALID,342,VALID,0.235547,
2011-04-16, 01:14:05,VALID,1003.31,VALID,0,INVALID,163.624,VALID,0,VALID,25.0858,VALID,342,VALID,0.278125,
2011-04-16, 01:15:05,VALID,1003.27,VALID,0,INVALID,163.639,VALID,0,VALID,25.1423,VALID,342,VALID,0.134766,
2011-04-16, 01:16:05,VALID,1003.31,VALID,0,INVALID,163.617,VALID,0,VALID,25.1813,VALID,342,VALID,0.276563,
2011-04-16, 01:17:05,VALID,1003.28,VALID,0,INVALID,163.601,VALID,0,VALID,25.2202,VALID,342,VALID,0.304688,
2011-04-16, 01:18:05,VALID,1003.27,VALID,0,INVALID,163.624,VALID,0,VALID,25.2183,VALID,342,VALID,0.00898437,
2011-04-16, 01:19:05,VALID,1003.26,VALID,0,INVALID,163.609,VALID,0,VALID,25.2592,VALID,342,VALID,0.175391,
2011-04-16, 01:20:05,VALID,1003.26,VALID,0,INVALID,163.609,VALID,0,VALID,25.2786,VALID,342,VALID,0.39375,
2011-04-16, 01:21:05,VALID,1003.22,VALID,0,INVALID,163.624,VALID,0,VALID,25.2592,VALID,342,VALID,0.335156,
2011-04-16, 01:22:05,VALID,1003.18,VALID,0,INVALID,163.624,VALID,0.100563,VALID,25.2572,VALID,342,VALID,0.434766,
2011-04-16, 01:23:05,VALID,1003.13,VALID,0,INVALID,163.624,VALID,0,VALID,25.2786,VALID,343,VALID,0.593359,
2011-04-16, 01:24:05,VALID,1003.13,VALID,0,INVALID,163.624,VALID,0,VALID,25.2981,VALID,343,VALID,0.603125,
2011-04-16, 01:25:05,VALID,1003.1,VALID,0,INVALID,163.617,VALID,0.100563,VALID,25.2786,VALID,358,VALID,0.485156,
2011-04-16, 01:26:05,VALID,1003.08,VALID,0,INVALID,163.624,VALID,0,VALID,25.2786,VALID,358,VALID,0.207813,
2011-04-16, 01:27:04,VALID,1003.08,VALID,0,INVALID,163.594,VALID,0,VALID,25.3,VALID,358,VALID,0,
2011-04-16, 01:28:04,VALID,1003.11,VALID,0,INVALID,163.617,VALID,0,VALID,25.2572,VALID,358,VALID,0,
2011-04-16, 01:29:04,VALID,1003.11,VALID,0,INVALID,163.617,VALID,0,VALID,25.2767,VALID,358,VALID,0.267188,
2011-04-16, 01:30:04,VALID,1003.13,VALID,0,INVALID,163.609,VALID,0.100563,VALID,25.2786,VALID,358,VALID,0.474219,
2011-04-16, 01:31:04,VALID,1003.12,VALID,0,INVALID,163.647,VALID,0.100563,VALID,25.2981,VALID,358,VALID,0.442969,
2011-04-16, 01:32:04,VALID,1003.13,VALID,0,INVALID,163.624,VALID,0.100563,VALID,25.2767,VALID,349,VALID,0.564844,
2011-04-16, 01:33:04,VALID,1003.16,VALID,0,INVALID,163.594,VALID,0,VALID,25.2981,VALID,339,VALID,0.553516,
2011-04-16, 01:34:04,VALID,1003.13,VALID,0,INVALID,163.609,VALID,0,VALID,25.2767,VALID,348,VALID,0.605469,
2011-04-16, 01:35:04,VALID,1003.14,VALID,0,INVALID,163.632,VALID,0,VALID,25.3176,VALID,345,VALID,0.327734,
2011-04-16, 01:36:04,VALID,1003.15,VALID,0,INVALID,163.624,VALID,0,VALID,25.2981,VALID,345,VALID,0.269141,
2011-04-16, 01:37:04,VALID,1003.17,VALID,0,INVALID,163.617,VALID,0.100563,VALID,25.3176,VALID,345,VALID,0.126172,
2011-04-16, 01:38:04,VALID,1003.17,VALID,0,INVALID,163.624,VALID,0,VALID,25.2572,VALID,345,VALID,0.285156,
2011-04-16, 01:39:04,VALID,1003.18,VALID,0,INVALID,163.617,VALID,0.100563,VALID,25.2786,VALID,334,VALID,0.0582031,
2011-04-16, 01:40:04,VALID,1003.19,VALID,0,INVALID,163.609,VALID,0,VALID,25.3,VALID,356,VALID,0.497266,
2011-04-16, 01:41:04,VALID,1003.19,VALID,0,INVALID,163.639,VALID,0,VALID,25.2786,VALID,351,VALID,0.0257812,
2011-04-16, 01:42:04,VALID,1003.2,VALID,0,INVALID,163.609,VALID,0.100563,VALID,25.2786,VALID,351,VALID,0.0957031,
2011-04-16, 01:43:04,VALID,1003.22,VALID,0,INVALID,163.624,VALID,0,VALID,25.2786,VALID,351,VALID,0.334375,
2011-04-16, 01:44:04,VALID,1003.22,VALID,0,INVALID,163.594,VALID,0.100563,VALID,25.2786,VALID,354,VALID,0.946094,
2011-04-16, 01:45:04,VALID,1003.25,VALID,0,INVALID,163.617,VALID,0.100563,VALID,25.2767,VALID,343,VALID,0.664453,
2011-04-16, 01:46:04,VALID,1003.24,VALID,0,INVALID,163.609,VALID,0,VALID,25.337,VALID,359,VALID,0.532031,
2011-04-16, 01:47:04,VALID,1003.25,VALID,0,INVALID,163.617,VALID,0,VALID,25.3565,VALID,358,VALID,0.472266,
2011-04-16, 01:48:04,VALID,1003.25,VALID,0,INVALID,163.632,VALID,0.100563,VALID,25.376,VALID,348,VALID,0.682031,
2011-04-16, 01:49:04,VALID,1003.21,VALID,0,INVALID,163.601,VALID,0,VALID,25.3955,VALID,349,VALID,0.54375,
2011-04-16, 01:50:04,VALID,1003.18,VALID,0,INVALID,163.617,VALID,0,VALID,25.376,VALID,5,VALID,0.359766,
2011-04-16, 01:51:04,VALID,1003.19,VALID,0,INVALID,163.639,VALID,0,VALID,25.4169,VALID,358,VALID,0.680469,
2011-04-16, 01:52:04,VALID,1003.17,VALID,0,INVALID,163.617,VALID,0,VALID,25.3974,VALID,348,VALID,0.658984,
2011-04-16, 01:53:04,VALID,1003.18,VALID,0,INVALID,163.624,VALID,0,VALID,25.3565,VALID,353,VALID,0.608984,
2011-04-16, 01:54:04,VALID,1003.17,VALID,0,INVALID,163.609,VALID,0,VALID,25.376,VALID,354,VALID,0.614062,
2011-04-16, 01:55:04,VALID,1003.17,VALID,0,INVALID,163.617,VALID,0,VALID,25.3955,VALID,355,VALID,0.0339844,
2011-04-16, 01:56:04,VALID,1003.17,VALID,0,INVALID,163.594,VALID,0,VALID,25.4149,VALID,321,VALID,0.568359,
2011-04-16, 01:57:04,VALID,1003.17,VALID,0,INVALID,163.617,VALID,0,VALID,25.4344,VALID,317,VALID,0.531641,
2011-04-16, 01:58:04,VALID,1003.19,VALID,0,INVALID,163.601,VALID,0.100563,VALID,25.4948,VALID,5,VALID,0.7,
2011-04-16, 01:59:04,VALID,1003.17,VALID,0,INVALID,163.617,VALID,0.100563,VALID,25.4734,VALID,347,VALID,0.560156,
2011-04-16, 02:00:04,VALID,1003.19,VALID,0,INVALID,163.617,VALID,0,VALID,25.4928,VALID,2,VALID,0.753516,
2011-04-16, 02:01:04,VALID,1003.16,VALID,0,INVALID,163.594,VALID,0,VALID,25.5123,VALID,350,VALID,0.864453,
2011-04-16, 02:02:04,VALID,1003.15,VALID,0,INVALID,163.617,VALID,0,VALID,25.5123,VALID,339,VALID,0.864844,
2011-04-16, 02:03:04,VALID,1003.15,VALID,0,INVALID,163.601,VALID,0,VALID,25.5318,VALID,323,VALID,0.433984,
2011-04-16, 02:04:04,VALID,1003.16,VALID,0,INVALID,163.617,VALID,0.100563,VALID,25.5532,VALID,337,VALID,0.663281,
2011-04-16, 02:05:04,VALID,1003.14,VALID,0,INVALID,163.601,VALID,0,VALID,25.5318,VALID,12,VALID,0.441406,
2011-04-16, 02:06:04,VALID,1003.18,VALID,0,INVALID,163.632,VALID,0,VALID,25.5513,VALID,10,VALID,0.389062,
2011-04-16, 02:07:04,VALID,1003.21,VALID,0,INVALID,163.594,VALID,0,VALID,25.5318,VALID,353,VALID,0.588672,
2011-04-16, 02:08:04,VALID,1003.22,VALID,0,INVALID,163.609,VALID,0.100563,VALID,25.5513,VALID,343,VALID,0.610156,
2011-04-16, 02:09:04,VALID,1003.26,VALID,0,INVALID,163.601,VALID,0,VALID,25.5123,VALID,348,VALID,0.629297,
2011-04-16, 02:10:04,VALID,1003.21,VALID,0,INVALID,163.609,VALID,0,VALID,25.5532,VALID,340,VALID,0.711328,
2011-04-16, 02:11:04,VALID,1003.23,VALID,0,INVALID,163.609,VALID,0,VALID,25.5532,VALID,345,VALID,0.737891,
2011-04-16, 02:12:04,VALID,1003.24,VALID,0,INVALID,163.609,VALID,0,VALID,25.5707,VALID,327,VALID,0.310547,
2011-04-16, 02:13:04,VALID,1003.23,VALID,0,INVALID,163.586,VALID,0,VALID,25.5707,VALID,342,VALID,0.564453,
2011-04-16, 02:14:04,VALID,1003.22,VALID,0,INVALID,163.586,VALID,0,VALID,25.6097,VALID,354,VALID,1.08398,
2011-04-16, 02:15:04,VALID,1003.2,VALID,0,INVALID,163.601,VALID,0,VALID,25.6506,VALID,337,VALID,0.699219,
2011-04-16, 02:16:04,VALID,1003.18,VALID,0,INVALID,163.617,VALID,0,VALID,25.6292,VALID,283,VALID,0.34375,
2011-04-16, 02:17:04,VALID,1003.19,VALID,0,INVALID,163.594,VALID,0,VALID,25.6681,VALID,344,VALID,1.04805,
2011-04-16, 02:18:04,VALID,1003.18,VALID,0,INVALID,163.609,VALID,0,VALID,25.7071,VALID,342,VALID,0.655469,
2011-04-16, 02:19:04,VALID,1003.14,VALID,0,INVALID,163.571,VALID,0,VALID,25.7265,VALID,340,VALID,0.473828,
2011-04-16, 02:20:04,VALID,1003.13,VALID,0,INVALID,163.617,VALID,0,VALID,25.7265,VALID,338,VALID,0.303516,
2011-04-16, 02:21:04,VALID,1003.11,VALID,0,INVALID,163.609,VALID,0,VALID,25.7071,VALID,357,VALID,0.256641,
2011-04-16, 02:22:04,VALID,1003.11,VALID,0,INVALID,163.586,VALID,0,VALID,25.709,VALID,355,VALID,0.302344,
2011-04-16, 02:23:04,VALID,1003.08,VALID,0,INVALID,163.594,VALID,0,VALID,25.6292,VALID,351,VALID,0.285937,
2011-04-16, 02:24:04,VALID,1003.05,VALID,0,INVALID,163.578,VALID,0,VALID,25.5902,VALID,351,VALID,0.278125,
2011-04-16, 02:25:04,VALID,1003.03,VALID,0,INVALID,163.594,VALID,0.100563,VALID,25.5707,VALID,351,VALID,0.337109,
2011-04-16, 02:26:04,VALID,1003.01,VALID,0,INVALID,163.617,VALID,0.100563,VALID,25.5318,VALID,351,VALID,0.320703,
2011-04-16, 02:27:04,VALID,1003.02,VALID,0,INVALID,163.609,VALID,0.100563,VALID,25.4928,VALID,6,VALID,0.528906,
2011-04-16, 02:28:04,VALID,1003,VALID,0,INVALID,163.586,VALID,0,VALID,25.4539,VALID,7,VALID,0.303516,
2011-04-16, 02:29:04,VALID,1003,VALID,0,INVALID,163.609,VALID,0,VALID,25.4344,VALID,7,VALID,0.259766,
2011-04-16, 02:30:04,VALID,1003.04,VALID,0,INVALID,163.586,VALID,0,VALID,25.4344,VALID,23,VALID,0.585938,
2011-04-16, 02:31:04,VALID,1003.02,VALID,0,INVALID,163.578,VALID,0,VALID,25.4149,VALID,19,VALID,0.265625,
2011-04-16, 02:32:04,VALID,1003.02,VALID,0,INVALID,163.624,VALID,0,VALID,25.3955,VALID,19,VALID,0.211328,
2011-04-16, 02:33:04,VALID,1003.09,VALID,0,INVALID,163.609,VALID,0,VALID,25.4149,VALID,354,VALID,0.5,
2011-04-16, 02:34:04,VALID,1003.1,VALID,0,INVALID,163.647,VALID,0,VALID,25.4539,VALID,337,VALID,0.335547,
2011-04-16, 02:35:04,VALID,1003.11,VALID,0,INVALID,163.609,VALID,0,VALID,25.4928,VALID,333,VALID,0.362109,
2011-04-16, 02:36:04,VALID,1003.11,VALID,0,INVALID,163.601,VALID,0,VALID,25.5142,VALID,326,VALID,0.0824219,
2011-04-16, 02:37:04,VALID,1003.11,VALID,0,INVALID,163.617,VALID,0,VALID,25.5318,VALID,326,VALID,0.00195313,
2011-04-16, 02:38:04,VALID,1003.14,VALID,0,INVALID,163.594,VALID,0,VALID,25.5318,VALID,330,VALID,0.255859,
2011-04-16, 02:39:04,VALID,1003.14,VALID,0,INVALID,163.617,VALID,0,VALID,25.5513,VALID,329,VALID,0.383594,
2011-04-16, 02:40:04,VALID,1003.12,VALID,0,INVALID,163.601,VALID,0,VALID,25.5707,VALID,331,VALID,0.278125,
2011-04-16, 02:41:04,VALID,1003.12,VALID,0,INVALID,163.556,VALID,0,VALID,25.5902,VALID,342,VALID,0.259766,
2011-04-16, 02:42:04,VALID,1003.09,VALID,0,INVALID,163.609,VALID,0,VALID,25.6116,VALID,334,VALID,0.503516,
2011-04-16, 02:43:04,VALID,1003.08,VALID,0,INVALID,163.609,VALID,0,VALID,25.6097,VALID,345,VALID,0.562109,
2011-04-16, 02:44:04,VALID,1003.06,VALID,0,INVALID,163.594,VALID,0,VALID,25.6292,VALID,340,VALID,0.731641,
2011-04-16, 02:45:04,VALID,1003.02,VALID,0,INVALID,163.594,VALID,0,VALID,25.6097,VALID,347,VALID,0.719922,
2011-04-16, 02:46:04,VALID,1003.03,VALID,0,INVALID,163.586,VALID,0,VALID,25.6292,VALID,351,VALID,0.691406,
2011-04-16, 02:47:04,VALID,1003.04,VALID,0,INVALID,163.571,VALID,0,VALID,25.5883,VALID,353,VALID,0.752344,
2011-04-16, 02:48:04,VALID,1003.01,VALID,0,INVALID,163.594,VALID,0,VALID,25.6116,VALID,347,VALID,0.799609,
2011-04-16, 02:49:04,VALID,1002.97,VALID,0,INVALID,163.601,VALID,0,VALID,25.5902,VALID,354,VALID,0.566016,
2011-04-16, 02:50:04,VALID,1002.97,VALID,0,INVALID,163.601,VALID,0,VALID,25.6097,VALID,2,VALID,0.708984,
2011-04-16, 02:51:04,VALID,1002.93,VALID,0,INVALID,163.624,VALID,0,VALID,25.6292,VALID,360,VALID,0.490625,
2011-04-16, 02:52:04,VALID,1002.92,VALID,0,INVALID,163.617,VALID,0,VALID,25.67,VALID,353,VALID,0.886719,
2011-04-16, 02:53:04,VALID,1002.93,VALID,0,INVALID,163.586,VALID,0,VALID,25.6272,VALID,3,VALID,0.792969,
2011-04-16, 02:54:04,VALID,1002.93,VALID,0,INVALID,163.601,VALID,0,VALID,25.6895,VALID,341,VALID,0.664453,
2011-04-16, 02:55:04,VALID,1002.93,VALID,0,INVALID,163.578,VALID,0,VALID,25.6876,VALID,346,VALID,0.649609,
2011-04-16, 02:56:04,VALID,1002.92,VALID,0,INVALID,163.578,VALID,0,VALID,25.6876,VALID,341,VALID,0.390234,
2011-04-16, 02:57:04,VALID,1002.93,VALID,0,INVALID,163.571,VALID,0,VALID,25.7285,VALID,353,VALID,0.673828,
2011-04-16, 02:58:04,VALID,1002.96,VALID,0,INVALID,163.586,VALID,0,VALID,25.748,VALID,342,VALID,0.6875,
2011-04-16, 02:59:04,VALID,1002.95,VALID,0,INVALID,163.578,VALID,0,VALID,25.746,VALID,355,VALID,0.535937,
2011-04-16, 03:00:04,VALID,1002.99,VALID,0,INVALID,163.594,VALID,0,VALID,25.744,VALID,357,VALID,0.548437,
2011-04-16, 03:01:04,VALID,1002.95,VALID,0,INVALID,163.609,VALID,0,VALID,25.746,VALID,353,VALID,0.430078,
2011-04-16, 03:02:04,VALID,1002.93,VALID,0,INVALID,163.571,VALID,0,VALID,25.7655,VALID,350,VALID,0.633203,
2011-04-16, 03:03:04,VALID,1002.95,VALID,0,INVALID,163.571,VALID,0,VALID,25.7655,VALID,355,VALID,1.24883,
2011-04-16, 03:04:04,VALID,1002.94,VALID,0,INVALID,163.586,VALID,0,VALID,25.8064,VALID,356,VALID,0.615625,
2011-04-16, 03:05:04,VALID,1002.94,VALID,0,INVALID,163.586,VALID,0,VALID,25.8064,VALID,354,VALID,0.167578,
2011-04-16, 03:06:04,VALID,1002.97,VALID,0,INVALID,163.563,VALID,0,VALID,25.785,VALID,354,VALID,0.403516,
2011-04-16, 03:07:04,VALID,1002.95,VALID,0,INVALID,163.563,VALID,0,VALID,25.7655,VALID,350,VALID,0.0242187,
2011-04-16, 03:08:04,VALID,1002.97,VALID,0,INVALID,163.601,VALID,0,VALID,25.7655,VALID,350,VALID,0.00429688,
2011-04-16, 03:09:04,VALID,1003,VALID,0,INVALID,163.578,VALID,0,VALID,25.746,VALID,350,VALID,0.151172,
2011-04-16, 03:10:04,VALID,1003.02,VALID,0,INVALID,163.594,VALID,0,VALID,25.746,VALID,350,VALID,0.0234375,
2011-04-16, 03:11:04,VALID,1003.06,VALID,0,INVALID,163.601,VALID,0,VALID,25.748,VALID,314,VALID,0.192188,
2011-04-16, 03:12:04,VALID,1003.06,VALID,0,INVALID,163.594,VALID,0,VALID,25.7071,VALID,291,VALID,0.247656,
2011-04-16, 03:13:04,VALID,1003.07,VALID,0,INVALID,163.609,VALID,0,VALID,25.6876,VALID,233,VALID,0.902344,
2011-04-16, 03:14:04,VALID,1003.08,VALID,0,INVALID,163.609,VALID,0,VALID,25.6895,VALID,237,VALID,0.0429688,
2011-04-16, 03:15:04,VALID,1003.09,VALID,0,INVALID,163.609,VALID,0,VALID,25.6895,VALID,236,VALID,0.225391,
2011-04-16, 03:16:04,VALID,1003.09,VALID,0,INVALID,163.571,VALID,0,VALID,25.6486,VALID,298,VALID,0.691016,
2011-04-16, 03:17:04,VALID,1003.07,VALID,0,INVALID,163.609,VALID,0,VALID,25.6292,VALID,288,VALID,0.824609,
2011-04-16, 03:18:04,VALID,1003.09,VALID,0,INVALID,163.594,VALID,0,VALID,25.6097,VALID,295,VALID,0.285156,
2011-04-16, 03:19:04,VALID,1003.08,VALID,0,INVALID,163.586,VALID,0,VALID,25.6311,VALID,293,VALID,0.35,
2011-04-16, 03:20:04,VALID,1003.09,VALID,0,INVALID,163.594,VALID,0,VALID,25.5902,VALID,293,VALID,0.210938,
2011-04-16, 03:21:04,VALID,1003.1,VALID,0,INVALID,163.632,VALID,0,VALID,25.5707,VALID,298,VALID,0.116016,
2011-04-16, 03:22:04,VALID,1003.11,VALID,0,INVALID,163.601,VALID,0,VALID,25.5513,VALID,298,VALID,0.168359,
2011-04-16, 03:23:04,VALID,1003.11,VALID,0,INVALID,163.609,VALID,0,VALID,25.5727,VALID,310,VALID,0.307813,
2011-04-16, 03:24:04,VALID,1003.13,VALID,0,INVALID,163.609,VALID,0,VALID,25.5318,VALID,346,VALID,0.580859,
2011-04-16, 03:25:04,VALID,1003.14,VALID,0,INVALID,163.586,VALID,0,VALID,25.4928,VALID,350,VALID,0.66875,
2011-04-16, 03:26:04,VALID,1003.15,VALID,0,INVALID,163.617,VALID,0,VALID,25.4558,VALID,12,VALID,0.724219,
2011-04-16, 03:27:04,VALID,1003.15,VALID,0,INVALID,163.624,VALID,0,VALID,25.4169,VALID,6,VALID,0.8625,
2011-04-16, 03:28:04,VALID,1003.16,VALID,0,INVALID,163.601,VALID,0,VALID,25.337,VALID,2,VALID,0.816406,
2011-04-16, 03:29:04,VALID,1003.15,VALID,0,INVALID,163.632,VALID,0,VALID,25.2592,VALID,357,VALID,0.741797,
2011-04-16, 03:30:04,VALID,1003.15,VALID,0,INVALID,163.632,VALID,0,VALID,25.2202,VALID,1,VALID,1.06133,
2011-04-16, 03:31:04,VALID,1003.15,VALID,0,INVALID,163.639,VALID,0,VALID,25.1813,VALID,20,VALID,0.826563,
2011-04-16, 03:32:04,VALID,1003.17,VALID,0,INVALID,163.647,VALID,0,VALID,25.1618,VALID,338,VALID,0.695313,
2011-04-16, 03:33:04,VALID,1003.18,VALID,0,INVALID,163.639,VALID,0,VALID,25.1637,VALID,306,VALID,0.0636719,
2011-04-16, 03:34:04,VALID,1003.16,VALID,0,INVALID,163.639,VALID,0,VALID,25.1442,VALID,359,VALID,0.56875,
2011-04-16, 03:35:04,VALID,1003.18,VALID,0,INVALID,163.647,VALID,0,VALID,25.1053,VALID,2,VALID,0.7125,
2011-04-16, 03:36:04,VALID,1003.18,VALID,0,INVALID,163.647,VALID,0,VALID,25.1053,VALID,358,VALID,0.867969,
2011-04-16, 03:37:04,VALID,1003.2,VALID,0,INVALID,163.617,VALID,0,VALID,25.0644,VALID,359,VALID,0.7375,
2011-04-16, 03:38:04,VALID,1003.23,VALID,0,INVALID,163.655,VALID,0,VALID,25.0858,VALID,358,VALID,0.428906,
2011-04-16, 03:39:04,VALID,1003.28,VALID,0,INVALID,163.632,VALID,0,VALID,25.0644,VALID,358,VALID,0.0140625,